Tracking 25620 objects as of 18-May-2022
HD Live streaming from Space Station
objects crossing your sky now

COSMOS 2251 DEB

Track COSMOS 2251 DEB now!
10-day predictions


NORAD ID: 47077
Int'l Code: 1993-036BYF
Perigee: 616.3 km
Apogee: 726.5 km
Inclination: 74.1 °
Period: 98.0 minutes
Semi major axis: 7042 km
RCS: Unknown
Launch date: June 16, 1993
Source: Commonwealth of Independent States (former USSR) (CIS)
Launch site: PLESETSK MISSILE AND SPACE COMPLEX (PKMTR)

Note: This is SATELLITE DEBRIS
aabbcc
Your satellite tracking list
Your tracking list is empty




NASA's NSSDC Master Catalog

Two Line Element Set (TLE):
1 47077U 93036BYH 22137.05273470  .00018753  00000-0  30495-2 0  9996
2 47077  74.1235 275.4907 0078216 185.9400 293.6133 14.69001141438272
Source of the keplerian elements: AFSPC